STARLINK-32382, 61258

Orbit data source: Space-Track

STARLINK-32382, 61258 is a payload satellite owned by SpaceX/Seattle (US) in LEO that was launched on Wed, 25 Sep 2024 UTC via an FALCON 9 launch vehicle from the Air Force Western Test Range (AFWTR). Payload-class satellites include a variety of spacecraft equipped with specific instruments for various scientific and technological missions. These include communications satellites like Starlink; space stations such as the ISS; scientific satellites like the Hubble; Earth observation satellites from companies like Planet Labs, Umbra, and HawkEye 360; GPS; miniature CubeSats for education and research; and military/defense satellites.

Loading next visibility...
Identifier
61258, 2024-175R
Orbit
LEO
Country
Flag of USUS
Related business
Manufacturer
SpaceX/Seattle
Mission
Operational Commercial Communications
Bus & Motor
STARLINK V2M, Unknown motor
Mass
730 kg wet, ~700 kg dry
Launch date (UTC)
2024-09-25 (1 year ago)
Launch vehicle
FALCON 9
Launch site
Air Force Western Test Range (AFWTR)
Object type
Payload
Rocket body
Debris
Shape & HBR
Box + 2 Pan, 17.7 m
Radar Cross Section
33.884 m², Large (>1 m²)

Expand to show TLE details & history
Last TLE update: 10 hours ago

TLE from 10 hours ago
0 STARLINK-32382
1 61258U 24175R   26034.14492515 -.00004353  00000-0 -13508-3 0  9994
2 61258  53.1627 354.5688 0001071  85.0881 275.0243 15.30162635 76161
Epoch: 2026-02-03T03:28Z
TLE epoch observation values (Epoch: 2026-02-03T03:28:41.532Z)
Latitude
0.00003°
Longitude
169.06571°
Altitude
476.162 km
Speed
7.629 km/s
True Right ascension
23h 38m 16s
True Declination
0° 00' 00"
Sunlit
Object was in daylight at epoch
Visualization orbit readout
Latitude
Unknown
Longitude
Unknown
Altitude
Unknown
Speed
Unknown
Apparent Right ascension
Unknown
Apparent Declination
Unknown
Sunlit
N/A
Visualization observer readout
Local Sidereal Time
15:32:02
Azimuth
Unknown
Elevation
Unknown
Doppler factor
Unknown
Orbital elements
Apogee altitude
476.317 km
Perigee altitude
474.849 km
Semi-major axis
6,853.72 km
Eccentricity
0.00011
Inclination
53.1627°
RAAN
354.5688°
Arg. of periapsis
85.0881°
True anomaly
275.01207°
Mean anomaly
275.0243°
Eccentric anomaly
275.01819°
Mean motion
3.8252 °/min
Orbital period
94.11 mins
BSTAR
-0.00013508
Loading maneuver chart data...
Computing Atmospheric mass density...
Loading historical data...
Loading historical data...
Loading historical data...
Loading historical data...
Loading historical data...
Loading historical data...
Loading historical data...

Documentation

Showing up to 5 results
|